Flag for U.S.A. Weather past 2 weeks in Thousand Oaks, California, U.S.A.

Now
80 °F

Sunny.


Feels Like: 80 °F
Forecast: 67 / 86 °F
Wind: 9 mph from West

Location: Camarillo Airport

Current Time: Jun 29, 2015 at 4:39:41 PM

Latest Report: Jun 29, 2015 at 3:55 PM


Visibility: 10 mi

Pressure: 29.89 "Hg

Humidity: 44%

Dew point: 56 °F

Location of Thousand OaksLocation

Historic Weather in Thousand Oaks — Graph

°F

Thousand Oaks temperature yesterday

Maximum temperature yesterday: 80 °F (at 11:55 AM)
Minimum temperature yesterday: 62 °F (at 5:55 AM)
Average temperature yesterday: 68 °F

Past Weeks' High & Low Weather Summary

 TemperatureHumidityPressure
High80 °F (Jun 19, 1:55 PM)90% (Jun 15, 6:55 AM)30.06 "Hg (Jun 15, 6:55 AM)
Low55 °F (Jun 19, 4:55 AM)41% (Jun 19, 1:55 PM)29.79 "Hg (Jun 14, 5:55 PM)
Average66 °F72%29.92 "Hg
* Reported Jun 14 2:55 PM — Jun 29 2:55 PM, Thousand Oaks, Weather by CustomWeather, © 2015

Note: Actual official high and low records may vary slightly from our data, if they occured in-between our weather recording intervals... More about our weather records

Advertising

Thousand Oaks weather history for previous 24 hours

 ConditionsComfort  
Time TempWeatherWind HumidityBarometerVisibility
2:55 PM
Mon, Jun 29
79 °FSunny.12 mph45%29.91 "Hg10 mi
1:55 PM79 °FSunny.12 mph47%29.91 "Hg10 mi
12:55 PM79 °FSunny.8 mph47%29.92 "Hg10 mi
11:55 AM79 °FSunny.6 mph48%29.93 "Hg10 mi
10:55 AM76 °FSunny.8 mph52%29.93 "Hg10 mi
9:55 AM74 °FSunny.5 mph60%29.93 "Hg10 mi
8:55 AM67 °FSunny.No wind76%29.94 "Hg10 mi
7:55 AM64 °FSunny.No wind81%29.93 "Hg10 mi
6:55 AM63 °FSunny.No wind81%29.92 "Hg10 mi
5:55 AM61 °FClear.3 mph83%29.91 "Hg10 mi
4:55 AM62 °FClear.No wind83%29.89 "Hg10 mi
3:55 AM62 °FClear.No wind80%29.89 "Hg10 mi
2:55 AM62 °FClear.No wind80%29.90 "Hg10 mi
1:55 AM63 °FClear.3 mph81%29.89 "Hg10 mi
12:55 AM63 °FClear.5 mph81%29.89 "Hg10 mi
11:55 PM
Sun, Jun 28
64 °FClear.No wind81%29.90 "Hg10 mi
10:55 PM65 °FClear.3 mph78%29.91 "Hg10 mi
9:55 PM65 °FClear.5 mph78%29.91 "Hg10 mi
8:55 PM66 °FSunny.6 mph75%29.90 "Hg10 mi
7:55 PM67 °FSunny.3 mph73%29.90 "Hg10 mi
6:55 PM69 °FSunny.6 mph66%29.90 "Hg10 mi
4:55 PM73 °FSunny.9 mph59%29.91 "Hg10 mi
Weather by CustomWeather, © 2015

See weather overviewHow to use our weather pages